�������l�o���
Date,Time,MP-1(��Sv/h),MP-2(��Sv/h),MP-3(��Sv/h),MP-4(��Sv/h),MP-5(��Sv/h),MP-6(��Sv/h),MP-7(��Sv/h),MP-8(��Sv/h),����,����(m/s),���J
2019/05/06,00:00,0.766,1.125,0.772,1.412,1.041,0.441,0.774,0.729,��,8.8,��
2019/05/06,00:10,0.765,1.123,0.770,1.413,1.041,0.443,0.773,0.729,��,9.2,��
2019/05/06,00:20,0.766,1.123,0.771,1.412,1.040,0.442,0.772,0.729,��,8.4,��
2019/05/06,00:30,0.764,1.121,0.770,1.411,1.043,0.442,0.773,0.731,��,8.3,��
2019/05/06,00:40,0.765,1.124,0.772,1.412,1.039,0.442,0.771,0.729,��,8.1,��
2019/05/06,00:50,0.766,1.122,0.771,1.413,1.042,0.443,0.771,0.730,��,7.5,��
2019/05/06,01:00,0.767,1.124,0.770,1.413,1.040,0.441,0.773,0.730,��,7.2,��
2019/05/06,01:10,0.765,1.123,0.771,1.413,1.040,0.442,0.772,0.731,��,7.4,��
2019/05/06,01:20,0.765,1.120,0.768,1.415,1.040,0.442,0.772,0.729,��,6.7,��
2019/05/06,01:30,0.765,1.123,0.771,1.412,1.041,0.441,0.771,0.729,��,5.7,��
2019/05/06,01:40,0.766,1.123,0.769,1.413,1.039,0.442,0.773,0.731,��,6.3,��
2019/05/06,01:50,0.764,1.124,0.772,1.412,1.041,0.443,0.772,0.728,��,6.2,��
2019/05/06,02:00,0.766,1.123,0.771,1.412,1.040,0.442,0.773,0.730,��,7.3,��
2019/05/06,02:10,0.765,1.120,0.772,1.412,1.039,0.442,0.773,0.729,��,7.9,��
2019/05/06,02:20,0.765,1.120,0.770,1.412,1.041,0.442,0.772,0.730,��,7.8,��
2019/05/06,02:30,0.764,1.122,0.772,1.412,1.041,0.441,0.771,0.730,��,7.5,��
2019/05/06,02:40,0.764,1.121,0.771,1.414,1.038,0.442,0.772,0.729,��,8.0,��
2019/05/06,02:50,0.766,1.122,0.770,1.412,1.042,0.442,0.771,0.730,��,8.2,��
2019/05/06,03:00,0.765,1.122,0.770,1.413,1.039,0.441,0.772,0.728,��,8.3,��
2019/05/06,03:10,0.765,1.122,0.771,1.414,1.041,0.443,0.772,0.729,��,8.5,��
2019/05/06,03:20,0.765,1.124,0.770,1.413,1.039,0.442,0.772,0.730,��,7.3,��
2019/05/06,03:30,0.764,1.121,0.768,1.413,1.040,0.441,0.772,0.729,��,7.2,��
2019/05/06,03:40,0.765,1.119,0.770,1.411,1.041,0.442,0.772,0.729,��,7.6,��
2019/05/06,03:50,0.765,1.121,0.770,1.412,1.041,0.441,0.771,0.730,��,8.5,��
2019/05/06,04:00,0.764,1.120,0.772,1.414,1.039,0.443,0.772,0.730,��,7.4,��
2019/05/06,04:10,0.764,1.121,0.770,1.412,1.040,0.442,0.771,0.729,��,7.0,��
2019/05/06,04:20,0.763,1.121,0.769,1.413,1.040,0.443,0.772,0.730,��,6.8,��
2019/05/06,04:30,0.764,1.121,0.769,1.412,1.041,0.442,0.772,0.730,��,7.2,��
2019/05/06,04:40,0.764,1.121,0.770,1.412,1.041,0.443,0.773,0.730,��,7.7,��
2019/05/06,04:50,0.763,1.121,0.770,1.413,1.039,0.442,0.773,0.729,��,7.1,��
2019/05/06,05:00,0.765,1.119,0.770,1.412,1.041,0.442,0.771,0.729,��,7.6,��
2019/05/06,05:10,0.765,1.120,0.770,1.414,1.041,0.442,0.772,0.730,��,8.5,��
2019/05/06,05:20,0.765,1.121,0.770,1.413,1.039,0.441,0.772,0.730,��,8.3,��
2019/05/06,05:30,0.766,1.119,0.770,1.410,1.040,0.442,0.769,0.729,��,6.0,��
2019/05/06,05:40,0.765,1.119,0.771,1.411,1.039,0.441,0.773,0.729,��,5.7,��
2019/05/06,05:50,0.765,1.120,0.772,1.411,1.039,0.441,0.772,0.730,��,6.2,��
2019/05/06,06:00,0.763,1.122,0.770,1.412,1.041,0.441,0.773,0.729,��,7.4,��
2019/05/06,06:10,0.763,1.122,0.772,1.413,1.039,0.441,0.772,0.729,��,9.2,��
2019/05/06,06:20,0.765,1.124,0.769,1.415,1.042,0.443,0.773,0.729,��,7.6,��
2019/05/06,06:30,0.766,1.120,0.770,1.413,1.038,0.443,0.772,0.730,��,8.1,��
2019/05/06,06:40,0.763,1.119,0.769,1.414,1.040,0.441,0.771,0.731,��,7.7,��
2019/05/06,06:50,0.764,1.119,0.770,1.415,1.038,0.439,0.770,0.730,��,8.8,��
2019/05/06,07:00,0.764,1.119,0.770,1.412,1.040,0.442,0.773,0.730,��,8.6,��
2019/05/06,07:10,0.764,1.119,0.772,1.414,1.039,0.440,0.772,0.730,��,8.2,��
2019/05/06,07:20,0.765,1.119,0.770,1.414,1.039,0.441,0.771,0.732,��,6.2,��
2019/05/06,07:30,0.764,1.119,0.772,1.414,1.038,0.441,0.772,0.729,��,8.7,��
2019/05/06,07:40,0.764,1.117,0.771,1.413,1.040,0.441,0.771,0.730,��,6.8,��
2019/05/06,07:50,0.764,1.122,0.772,1.416,1.037,0.441,0.769,0.730,��쓌,8.1,��
2019/05/06,08:00,0.764,1.119,0.770,1.416,1.040,0.442,0.771,0.728,��,7.4,��
2019/05/06,08:10,0.764,1.122,0.773,1.415,1.040,0.442,0.770,0.728,��쓌,10.3,��
2019/05/06,08:20,0.766,1.120,0.772,1.414,1.040,0.441,0.771,0.727,��,10.3,��
2019/05/06,08:30,0.764,1.122,0.773,1.414,1.038,0.441,0.772,0.727,��,9.4,��
2019/05/06,08:40,0.764,1.121,0.772,1.414,1.040,0.441,0.770,0.728,��쓌,11.4,��
2019/05/06,08:50,0.762,1.122,0.771,1.414,1.040,0.442,0.770,0.727,��,11.3,��
2019/05/06,09:00,0.763,1.120,0.772,1.417,1.042,0.440,0.771,0.727,��,10.6,��
2019/05/06,09:10,0.763,1.121,0.771,1.415,1.037,0.441,0.772,0.727,��,10.6,��
2019/05/06,09:20,0.764,1.118,0.772,1.416,1.038,0.440,0.772,0.727,��,10.9,��
2019/05/06,09:30,0.762,1.119,0.772,1.420,1.040,0.441,0.771,0.728,��,11.7,��
2019/05/06,09:40,0.762,1.121,0.769,1.414,1.039,0.441,0.771,0.725,��,12.4,��
2019/05/06,09:50,0.766,1.122,0.767,1.417,1.042,0.441,0.770,0.729,��쓌,14.2,��
2019/05/06,10:00,0.764,1.120,0.767,1.413,1.042,0.439,0.771,0.728,��쓌,15.0,��
2019/05/06,10:10,0.762,1.121,0.769,1.416,1.040,0.441,0.771,0.729,��쓌,13.3,��
2019/05/06,10:20,0.761,1.123,0.768,1.418,1.042,0.442,0.770,0.727,��쓌,15.5,��
2019/05/06,10:30,0.764,1.124,0.769,1.416,1.042,0.441,0.772,0.727,��,14.7,��
2019/05/06,10:40,0.765,1.124,0.770,1.415,1.042,0.441,0.773,0.729,��쓌,14.2,��
2019/05/06,10:50,0.762,1.123,0.772,1.415,1.043,0.442,0.772,0.728,��쓌,13.9,��
2019/05/06,11:00,0.763,1.125,0.771,1.414,1.042,0.442,0.773,0.729,��쓌,14.4,��
2019/05/06,11:10,0.764,1.126,0.771,1.417,1.042,0.443,0.772,0.730,��쓌,15.2,��
2019/05/06,11:20,0.768,1.127,0.773,1.415,1.042,0.443,0.773,0.729,��쓌,13.8,��
2019/05/06,11:30,0.764,1.123,0.772,1.413,1.044,0.442,0.775,0.731,��쓌,12.7,��
2019/05/06,11:40,0.766,1.126,0.771,1.414,1.045,0.444,0.772,0.729,��쓌,14.1,��
2019/05/06,11:50,0.768,1.126,0.773,1.416,1.045,0.442,0.774,0.727,��,14.1,��
2019/05/06,12:00,0.764,1.124,0.772,1.415,1.044,0.442,0.772,0.728,��쓌,14.6,��
2019/05/06,12:10,0.767,1.126,0.772,1.416,1.047,0.442,0.773,0.728,��쓌,12.1,��
2019/05/06,12:20,0.767,1.124,0.771,1.414,1.043,0.442,0.773,0.728,��쓌,11.0,��
2019/05/06,12:30,0.765,1.126,0.772,1.416,1.046,0.443,0.774,0.730,��쓌,12.7,��
2019/05/06,12:40,0.767,1.127,0.771,1.416,1.044,0.442,0.772,0.728,��쓌,12.7,��
2019/05/06,12:50,0.766,1.126,0.774,1.419,1.045,0.442,0.771,0.729,��,12.7,��
2019/05/06,13:00,0.767,1.124,0.770,1.415,1.043,0.443,0.771,0.730,��쓌,12.7,��
2019/05/06,13:10,0.766,1.125,0.771,1.414,1.047,0.443,0.773,0.730,��쓌,13.0,��
2019/05/06,13:20,0.766,1.126,0.771,1.417,1.044,0.441,0.773,0.728,��,11.1,��
2019/05/06,13:30,0.766,1.124,0.773,1.414,1.045,0.442,0.771,0.728,��,11.6,��
2019/05/06,13:40,0.765,1.125,0.773,1.418,1.047,0.442,0.774,0.726,��쓌,12.5,��
2019/05/06,13:50,0.766,1.124,0.771,1.419,1.044,0.443,0.772,0.728,��,11.9,�L
2019/05/06,14:00,0.765,1.125,0.770,1.417,1.044,0.442,0.772,0.729,��쓌,11.8,�L
2019/05/06,14:10,0.765,1.123,0.771,1.418,1.046,0.441,0.772,0.729,��쓌,10.8,��
2019/05/06,14:20,0.764,1.124,0.771,1.416,1.045,0.442,0.771,0.728,��쓌,10.6,��
2019/05/06,14:30,0.767,1.123,0.772,1.419,1.045,0.440,0.771,0.728,��쓌,13.8,��
2019/05/06,14:40,0.767,1.125,0.772,1.420,1.046,0.442,0.772,0.729,��쓌,13.5,��
2019/05/06,14:50,0.766,1.126,0.772,1.419,1.045,0.441,0.772,0.729,��쓌,13.9,�L
2019/05/06,15:00,0.766,1.125,0.772,1.420,1.046,0.442,0.772,0.727,��쓌,13.0,�L
2019/05/06,15:10,0.767,1.126,0.775,1.420,1.043,0.441,0.773,0.728,��쓌,13.8,�L
2019/05/06,15:20,0.768,1.126,0.771,1.420,1.045,0.443,0.772,0.729,��쓌,13.6,��
2019/05/06,15:30,0.765,1.124,0.771,1.417,1.047,0.441,0.774,0.729,��쓌,12.5,��
2019/05/06,15:40,0.765,1.126,0.774,1.420,1.046,0.441,0.772,0.728,��쓌,13.5,��
2019/05/06,15:50,0.768,1.129,0.775,1.422,1.045,0.443,0.773,0.729,��쓌,12.4,�L
2019/05/06,16:00,0.765,1.124,0.774,1.420,1.047,0.442,0.772,0.729,��,12.0,�L
2019/05/06,16:10,0.767,1.127,0.775,1.421,1.046,0.442,0.771,0.731,��쓌,12.2,��
2019/05/06,16:20,0.767,1.125,0.774,1.418,1.045,0.443,0.773,0.730,��,13.3,��
2019/05/06,16:30,0.766,1.124,0.773,1.421,1.045,0.443,0.773,0.728,��쓌,12.5,��
2019/05/06,16:40,0.768,1.124,0.773,1.420,1.044,0.442,0.774,0.730,��쓌,13.3,��
2019/05/06,16:50,0.765,1.123,0.772,1.421,1.045,0.441,0.773,0.730,��쓌,13.5,��
2019/05/06,17:00,0.765,1.123,0.771,1.420,1.043,0.443,0.773,0.732,��쓌,14.7,��
2019/05/06,17:10,0.767,1.124,0.772,1.422,1.044,0.441,0.772,0.728,��쓌,15.7,��
2019/05/06,17:20,0.767,1.123,0.775,1.422,1.044,0.441,0.772,0.729,��쓌,13.6,��
2019/05/06,17:30,0.766,1.126,0.775,1.420,1.043,0.442,0.772,0.729,��쓌,14.4,��
2019/05/06,17:40,0.769,1.125,0.774,1.421,1.043,0.441,0.771,0.729,��쓌,13.6,��
2019/05/06,17:50,0.767,1.127,0.773,1.420,1.045,0.443,0.772,0.729,��쓌,10.0,�L
2019/05/06,18:00,0.768,1.125,0.775,1.421,1.044,0.443,0.772,0.730,��쓌,11.6,�L
2019/05/06,18:10,0.767,1.126,0.775,1.419,1.045,0.443,0.771,0.730,��,9.6,�L
2019/05/06,18:20,0.764,1.123,0.776,1.422,1.044,0.442,0.772,0.731,��,8.5,�L
2019/05/06,18:30,0.767,1.125,0.774,1.422,1.043,0.442,0.770,0.727,��,7.1,�L
2019/05/06,18:40,0.762,1.114,0.769,1.412,1.032,0.442,0.770,0.726,��,7.0,�L
2019/05/06,18:50,0.764,1.113,0.769,1.412,1.029,0.441,0.767,0.727,��,7.9,�L
2019/05/06,19:00,0.764,1.112,0.769,1.413,1.032,0.441,0.769,0.727,��,8.5,�L
2019/05/06,19:10,0.761,1.110,0.767,1.411,1.025,0.441,0.767,0.727,��,9.7,�L
2019/05/06,19:20,0.759,1.100,0.763,1.404,1.019,0.441,0.767,0.727,��,9.2,�L
2019/05/06,19:30,0.755,1.093,0.760,1.396,1.011,0.439,0.762,0.724,��,8.6,�L
2019/05/06,19:40,0.752,1.085,0.757,1.387,1.004,0.438,0.763,0.724,��,6.8,�L
2019/05/06,19:50,0.746,1.070,0.751,1.378,0.993,0.434,0.758,0.718,��쐼,5.6,�L
2019/05/06,20:00,0.738,1.063,0.745,1.358,0.983,0.432,0.752,0.717,��,8.0,�L
2019/05/06,20:10,0.728,1.050,0.740,1.344,0.974,0.428,0.753,0.716,��,7.1,�L
2019/05/06,20:20,0.733,1.059,0.741,1.347,0.982,0.431,0.754,0.714,��쐼,6.8,�L
2019/05/06,20:30,0.734,1.056,0.741,1.341,0.976,0.431,0.751,0.715,�쐼,5.8,�L
2019/05/06,20:40,0.714,1.035,0.730,1.316,0.957,0.424,0.748,0.713,��,7.5,�L
2019/05/06,20:50,0.711,1.030,0.725,1.313,0.957,0.422,0.743,0.708,��,3.7,�L
2019/05/06,21:00,0.716,1.033,0.730,1.321,0.960,0.426,0.743,0.708,��,3.8,�L
2019/05/06,21:10,0.723,1.038,0.733,1.324,0.963,0.430,0.746,0.712,��,4.2,�L
2019/05/06,21:20,0.726,1.042,0.732,1.324,0.964,0.432,0.746,0.710,���쐼,3.5,�L
2019/05/06,21:30,0.725,1.040,0.732,1.324,0.959,0.430,0.746,0.711,���쐼,3.8,�L
2019/05/06,21:40,0.722,1.037,0.730,1.318,0.960,0.432,0.743,0.711,���쐼,3.8,�L
2019/05/06,21:50,0.721,1.039,0.731,1.319,0.961,0.433,0.744,0.709,�쐼,3.4,�L
2019/05/06,22:00,0.720,1.034,0.728,1.318,0.957,0.432,0.745,0.709,��,4.2,�L
2019/05/06,22:10,0.718,1.035,0.728,1.317,0.956,0.431,0.741,0.709,��,4.2,�L
2019/05/06,22:20,0.717,1.032,0.726,1.314,0.953,0.431,0.740,0.708,���쐼,3.1,�L
2019/05/06,22:30,0.713,1.026,0.726,1.306,0.951,0.432,0.740,0.707,���쐼,6.4,�L
2019/05/06,22:40,0.716,1.031,0.726,1.311,0.950,0.433,0.739,0.707,���쐼,5.9,�L
2019/05/06,22:50,0.720,1.035,0.728,1.315,0.952,0.433,0.741,0.705,���k��,5.0,�L
2019/05/06,23:00,0.718,1.034,0.728,1.314,0.953,0.434,0.741,0.707,���k��,6.8,�L
2019/05/06,23:10,0.717,1.030,0.727,1.313,0.950,0.433,0.742,0.708,���k��,8.0,�L
2019/05/06,23:20,0.717,1.031,0.728,1.313,0.950,0.436,0.740,0.707,���k��,8.2,�L
2019/05/06,23:30,0.718,1.029,0.727,1.312,0.949,0.434,0.741,0.707,���k��,6.5,�L
2019/05/06,23:40,0.716,1.030,0.726,1.308,0.947,0.434,0.740,0.706,�k��,4.9,�L
2019/05/06,23:50,0.719,1.032,0.729,1.310,0.950,0.434,0.741,0.709,���k��,6.4,�L
